Location: ????????
(60.4333°N, 46.4710°E)
Time: 19:31:52
(UTC+00:00)

Helios 1A Rocket - Pass Details

Date: 25 November 2020
Orbit: 564 x 585 km, 98.3° (Epoch: 17 January)

Event Time Altitude Azimuth Distance (km) Brightness Sun altitude
Exits shadow 13:57:36 - 130° (SE) 2,678 6.0 -12.9°
Reaches altitude 10° 13:59:40 10° 121° (ESE) 1,866 5.2 -13.1°
Maximum altitude 14:03:16 32° 58° (ENE) 985 3.6 -13.5°
Drops below altitude 10° 14:06:54 10° 355° (N) 1,877 5.4 -14.0°
Sets 14:09:11 0° 345° (NNW) 2,780 6.4 -14.2°
